To NAV CANADA Home Page Login to a new session Search on AWWS site Feedback and Comments Disclaimer Vers la page française équivalente Tips FAQ What's new on the site To the Forecasts and Observations / NOTAM section To "File a Flight Plan" website Publications and other links Update of the User's profile FIC Telephone Numbers My Weather Data Folder Route Weather Data Regional Weather Data Local Weather Data To the Forecasts and Observations / NOTAM section
Request Generated 04/18/2015 at 11:35:21 UTC . Weather information available at that time is displayed.

METAR/TAF

KINDERSLEY/KINDERSLEY REGIONAL/SK    

METAR CYKY 181100Z 32011G17KT 15SM FEW060 SCT220 04/02 A2998 RMK
SC1CI2 SLP161=
METAR CYKY 181000Z 32010KT 15SM SCT220 04/03 A2997 RMK CI3 SLP157=
METAR CYKY 180900Z 32009KT 15SM SCT030 05/04 A2993 RMK SC3 SLP142=

CYKY - No TAF is issued for this station

Your time UTC time
Weather data provided by Environment Canada and NAV CANADA